New Braunfels, TX

10:58 PM CDT on September 29, 2016 (GMT -0500)
New Braunfels Municipal

Weather History for KBAZ - October, 2013

Change the Weather History Date:

Saturday, October 5, 2013

  Actual Average (KSAT) Record (KSAT)
Temperature  
Mean Temperature 76 °F 74 °F  
Max Temperature 91 °F 85 °F 95 °F (1937)
Min Temperature 63 °F 63 °F 44 °F (1975)
Degree Days  
Heating Degree Days 0 0  
Month to date heating degree days 0  
Since 1 July heating degree days 2  
Cooling Degree Days 11 9  
Month to date cooling degree days 49  
Year to date cooling degree days 2883  
Growing Degree Days 26 (Base 50)    
Moisture  
Dew Point 68 °F    
Average Humidity 82    
Maximum Humidity 100    
Minimum Humidity 42    
Precipitation  
Precipitation 0.00 in 0.12 in 2.76 in (1969)
Month to date precipitation 0.60  
Year to date precipitation 24.57  
Snow  
Snow 0.00 in - - ()
Month to date snowfall  
Since 1 July snowfall  
Since 1 September snowfall  
Snow Depth -    
Sea Level Pressure  
Sea Level Pressure 29.91 in    
Wind  
Wind Speed 5 mph (SSE)    
Max Wind Speed 21 mph    
Max Gust Speed 31 mph    
Visibility 8 miles    
Events Fog    
T = Trace of Precipitation, MM = Missing Value Source: NWS Daily Summary

Daily Weather History Graph

Daily Weather History Graph

Search for Another Location

Airport or City:

Trip Planner

Search our weather history database for the weather conditions in past years. The results will help you decide how hot, cold, wet, or windy it might be!

Date:

Astronomy

Oct. 05, 2013 Rise Set
Actual Time 7:27 AM CDT 7:12 PM CDT
Civil Twilight 7:04 AM CDT 7:36 PM CDT
Nautical Twilight 6:36 AM CDT 8:04 PM CDT
Astronomical Twilight 6:08 AM CDT 8:31 PM CDT
Moon 8:03 AM CDT (10/5) 7:39 PM CDT (10/5)
Length of Visible Light 12h 32m
Length of Day
11h 44m
New Moon, 1% of the Moon is Illuminated
Oct 5
New Moon
Oct 11
First Quarter
Oct 18
Full
Oct 26
Last Quarter
Nov 3
New

Hourly Weather History & Observations

Time (CDT) Temp. Heat Index Dew Point Humidity Pressure Visibility Wind Dir Wind Speed Gust Speed Precip Events Conditions
12:51 AM 73.9 °F - 71.1 °F 91% 29.88 in 10.0 mi South 6.9 mph - N/A   Clear
1:31 AM 73.4 °F - 71.6 °F 94% 29.90 in 10.0 mi South 4.6 mph - N/A   Mostly Cloudy
1:51 AM 73.9 °F - 72.0 °F 93% 29.87 in 10.0 mi South 5.8 mph - N/A   Overcast
2:51 AM 73.0 °F - 71.1 °F 93% 29.86 in 10.0 mi South 5.8 mph - N/A   Mostly Cloudy
3:04 AM 73.4 °F - 71.6 °F 94% 29.88 in 10.0 mi South 5.8 mph - N/A   Scattered Clouds
3:32 AM 71.6 °F - 71.6 °F 100% 29.89 in 10.0 mi Calm Calm - N/A   Mostly Cloudy
3:51 AM 73.0 °F - 71.1 °F 93% 29.87 in 10.0 mi Calm Calm - N/A   Overcast
4:13 AM 73.4 °F - 71.6 °F 94% 29.89 in 9.0 mi Calm Calm - N/A   Overcast
4:22 AM 73.4 °F - 71.6 °F 94% 29.89 in 10.0 mi SSW 3.5 mph - N/A   Overcast
4:51 AM 73.0 °F - 72.0 °F 96% 29.87 in 10.0 mi Calm Calm - N/A   Overcast
5:08 AM 73.4 °F - 71.6 °F 94% 29.90 in 9.0 mi South 3.5 mph - N/A   Overcast
5:17 AM 73.4 °F - 71.6 °F 94% 29.90 in 9.0 mi South 3.5 mph - N/A   Overcast
5:51 AM 72.0 °F - 71.1 °F 97% 29.87 in 8.0 mi South 3.5 mph - N/A   Mostly Cloudy
5:59 AM 71.6 °F - 69.8 °F 94% 29.90 in 7.0 mi South 3.5 mph - N/A   Scattered Clouds
6:20 AM 69.8 °F - 69.8 °F 100% 29.90 in 1.5 mi Calm Calm - N/A   Partly Cloudy
6:22 AM 69.8 °F - 69.8 °F 100% 29.90 in 1.0 mi Calm Calm - N/A   Mist
6:29 AM 69.8 °F - 69.8 °F 100% 29.90 in 0.5 mi SE 3.5 mph - N/A Fog Fog
6:46 AM 69.8 °F - 69.8 °F 100% 29.90 in 1.2 mi Calm Calm - N/A   Overcast
6:51 AM 70.0 °F - 69.1 °F 97% 29.88 in 1.0 mi ESE 3.5 mph - N/A   Mist
7:04 AM 69.8 °F - 69.8 °F 100% 29.90 in 0.2 mi SE 4.6 mph - N/A Fog Fog
7:30 AM 71.6 °F - 71.6 °F 100% 29.91 in 0.5 mi SE 3.5 mph - N/A Fog Fog
7:51 AM 72.0 °F - 71.1 °F 97% 29.89 in 0.5 mi Calm Calm - N/A Fog Fog
7:58 AM 71.6 °F - 71.6 °F 100% 29.91 in 4.0 mi Calm Calm - N/A   Overcast
8:05 AM 71.6 °F - 71.6 °F 100% 29.91 in 1.0 mi SSE 3.5 mph - N/A   Overcast
8:19 AM 71.6 °F - 71.6 °F 100% 29.92 in 1.5 mi SSE 3.5 mph - N/A   Overcast
8:37 AM 71.6 °F - 71.6 °F 100% 29.92 in 1.5 mi SE 3.5 mph - N/A   Overcast
8:51 AM 73.0 °F - 72.0 °F 96% 29.90 in 5.0 mi SSE 4.6 mph - N/A   Overcast
9:07 AM 73.4 °F - 71.6 °F 94% 29.92 in 7.0 mi South 5.8 mph - N/A   Scattered Clouds
9:21 AM 73.4 °F - 71.6 °F 94% 29.93 in 10.0 mi SSW 5.8 mph - N/A   Mostly Cloudy
9:33 AM 75.2 °F - 71.6 °F 89% 29.93 in 10.0 mi SSW 8.1 mph - N/A   Mostly Cloudy
9:36 AM 75.2 °F - 71.6 °F 89% 29.93 in 10.0 mi SSW 8.1 mph - N/A   Mostly Cloudy
9:38 AM 75.2 °F - 71.6 °F 89% 29.93 in 10.0 mi South 8.1 mph - N/A   Mostly Cloudy
9:51 AM 77.0 °F - 71.1 °F 82% 29.91 in 10.0 mi SSW 10.4 mph - N/A   Mostly Cloudy
9:58 AM 75.2 °F - 71.6 °F 89% 29.94 in 10.0 mi South 10.4 mph - N/A   Mostly Cloudy
10:51 AM 81.0 °F 84.9 °F 71.1 °F 72% 29.95 in 10.0 mi Calm Calm - N/A   Mostly Cloudy
11:51 AM 82.9 °F 85.4 °F 66.9 °F 58% 29.95 in 10.0 mi WSW 4.6 mph - N/A   Mostly Cloudy
11:58 AM 84.2 °F 88.4 °F 69.8 °F 62% 29.97 in 10.0 mi Calm Calm - N/A   Mostly Cloudy
12:51 PM 84.0 °F 86.3 °F 66.0 °F 55% 29.94 in 10.0 mi Calm Calm - N/A   Mostly Cloudy
1:51 PM 88.0 °F 90.3 °F 66.0 °F 48% 29.91 in 10.0 mi Variable 3.5 mph - N/A   Mostly Cloudy
2:51 PM 88.0 °F 89.3 °F 64.0 °F 45% 29.89 in 10.0 mi Calm Calm - N/A   Scattered Clouds
3:51 PM 88.0 °F 88.4 °F 62.1 °F 42% 29.87 in 10.0 mi Calm Calm - N/A   Partly Cloudy
4:51 PM 89.1 °F 90.0 °F 63.0 °F 42% 29.86 in 10.0 mi Calm Calm - N/A   Partly Cloudy
5:51 PM 86.0 °F 86.8 °F 63.0 °F 46% 29.86 in 10.0 mi NNE 3.5 mph - N/A   Partly Cloudy
6:51 PM 79.0 °F - 60.1 °F 52% 29.90 in 10.0 mi North 18.4 mph 23.0 mph N/A   Clear
7:51 PM 73.0 °F - 55.0 °F 53% 29.94 in 10.0 mi North 20.7 mph - N/A   Clear
8:51 PM 70.0 °F - 51.1 °F 51% 29.98 in 10.0 mi North 18.4 mph 26.5 mph N/A   Mostly Cloudy
9:51 PM 66.0 °F - 48.9 °F 54% 30.01 in 10.0 mi North 20.7 mph 27.6 mph N/A   Scattered Clouds
10:51 PM 63.0 °F - 44.1 °F 50% 30.02 in 10.0 mi NNE 19.6 mph 31.1 mph N/A   Clear
11:51 PM 63.0 °F - 41.0 °F 45% 30.02 in 10.0 mi North 13.8 mph - N/A   Mostly Cloudy